GW2693 Weather Reports


time (UTC)temp
C
wind
direction
speed
KPH
gust
KPH
rain 1hr
cm
rain 24hr
cm
rain mn
cm
humidity
%
barometer
mb
20260504120122 15 182 0.0 0.0 0.00 0.00 0.00 89 1012.3
20260504110549 15 221 1.6 1.6 0.00 0.00 0.00 92 1012.2
20260504100511 15 114 0.0 0.0 0.00 0.00 0.00 90 1012.2
20260504081904 15 174 1.6 1.6 0.00 0.00 0.00 88 1013.0
20260504081401 15 142 0.0 0.0 0.00 0.00 0.00 87 1013.3
20260504080856 15 110 0.0 0.0 0.00 0.00 0.00 87 1013.0
20260504080354 15 116 0.0 0.0 0.00 0.00 0.00 87 1013.3
20260504070321 17 110 0.0 0.0 0.00 0.00 0.00 83 1014.2
20260504060241 17 226 0.0 0.0 0.00 0.00 0.00 79 1014.8
20260504050710 18 136 4.8 9.7 0.00 0.00 0.00 77 1014.9
20260504050206 18 201 3.2 3.2 0.00 0.00 0.00 77 1015.2
20260504045703 17 109 3.2 3.2 0.00 0.00 0.00 77 1014.9
20260504045158 18 218 3.2 4.8 0.00 0.00 0.00 77 1015.2
20260504044656 18 189 3.2 3.2 0.00 0.00 0.00 76 1015.1
20260504044153 18 169 3.2 4.8 0.00 0.00 0.00 76 1015.3
20260504043650 18 185 1.6 1.6 0.00 0.00 0.00 75 1015.4
20260504043147 18 206 3.2 3.2 0.00 0.00 0.00 75 1015.3
20260504042644 18 193 0.0 0.0 0.00 0.00 0.00 75 1015.2
20260504042140 18 186 4.8 4.8 0.00 0.00 0.00 75 1015.5
20260504041636 18 159 1.6 1.6 0.00 0.00 0.00 74 1015.5
20260504041133 18 105 1.6 1.6 0.00 0.00 0.00 74 1015.3
20260504040630 18 180 4.8 4.8 0.00 0.00 0.00 74 1015.2
20260504040127 18 184 1.6 1.6 0.00 0.00 0.00 74 1015.4
20260504035623 18 176 4.8 4.8 0.00 0.00 0.00 74 1015.5
20260504035120 18 178 4.8 4.8 0.00 0.00 0.00 73 1015.4
20260504034618 18 199 3.2 4.8 0.00 0.00 0.00 73 1015.3
20260504034114 18 162 4.8 4.8 0.00 0.00 0.00 72 1015.3
20260504033613 18 195 6.4 6.4 0.00 0.00 0.00 72 1015.2
20260504033110 18 219 1.6 1.6 0.00 0.00 0.00 72 1015.2
20260504032606 18 154 3.2 4.8 0.00 0.00 0.00 72 1015.6
20260504032103 18 206 3.2 3.2 0.00 0.00 0.00 72 1015.5
20260504031601 18 120 1.6 1.6 0.00 0.00 0.00 72 1015.3
20260504031056 18 147 1.6 1.6 0.00 0.00 0.00 72 1015.2
20260504030554 18 207 0.0 1.6 0.00 0.00 0.00 72 1015.0
20260504030050 18 170 3.2 3.2 0.00 0.00 0.00 71 1015.3
20260504025547 19 163 1.6 3.2 0.00 0.00 0.00 70 1015.1
20260504025044 19 183 1.6 1.6 0.00 0.00 0.00 69 1015.0
20260504024541 19 163 0.0 0.0 0.00 0.00 0.00 69 1015.2
20260504024038 19 151 1.6 3.2 0.00 0.00 0.00 68 1015.1
20260504023534 20 173 0.0 0.0 0.00 0.00 0.00 68 1015.3
20260504023030 20 152 1.6 1.6 0.00 0.00 0.00 66 1015.3
20260504022526 20 162 3.2 4.8 0.00 0.00 0.00 66 1015.2
20260504022023 20 141 4.8 6.4 0.00 0.00 0.00 65 1015.0
20260504021521 20 221 1.6 3.2 0.00 0.00 0.00 64 1014.5
20260504021017 20 216 4.8 6.4 0.00 0.00 0.00 64 1014.5
20260504020514 20 203 3.2 4.8 0.00 0.00 0.00 64 1014.4
20260504020011 19 199 1.6 3.2 0.00 0.00 0.00 64 1014.5
20260504015507 18 206 0.0 0.0 0.00 0.00 0.00 67 1014.5
20260504015003 20 91 0.0 0.0 0.00 0.00 0.00 67 1014.3
20260504014459 20 110 0.0 0.0 0.00 0.00 0.00 65 1014.3
20260504013956 20 124 0.0 0.0 0.00 0.00 0.00 61 1014.2
20260504013455 20 148 0.0 0.0 0.00 0.00 0.00 61 1014.2
20260504012950 20 116 0.0 0.0 0.00 0.00 0.00 62 1013.9
20260504012449 21 102 0.0 0.0 0.00 0.00 0.00 62 1014.1
20260504011946 21 107 0.0 0.0 0.00 0.00 0.00 60 1013.9
20260504011442 21 123 0.0 0.0 0.00 0.00 0.00 58 1013.9
20260504010938 22 179 0.0 1.6 0.00 0.00 0.00 56 1014.0
20260504010434 22 176 0.0 0.0 0.00 0.00 0.00 53 1014.1
20260504005931 22 180 0.0 1.6 0.00 0.00 0.00 51 1014.0
20260504005427 22 159 3.2 3.2 0.00 0.00 0.00 50 1014.1
20260504004925 23 136 1.6 1.6 0.00 0.00 0.00 49 1014.0
20260504004423 23 200 0.0 0.0 0.00 0.00 0.00 48 1014.1
20260504003919 23 149 0.0 0.0 0.00 0.00 0.00 47 1014.0
20260504003416 24 120 1.6 1.6 0.00 0.00 0.00 46 1014.3
20260504002913 24 142 3.2 3.2 0.00 0.00 0.00 45 1014.2
20260504002409 25 210 4.8 4.8 0.00 0.00 0.00 44 1014.3
20260504001907 25 221 4.8 4.8 0.00 0.00 0.00 43 1014.4
20260504001405 25 198 1.6 4.8 0.00 0.00 0.00 43 1014.4
20260504000901 25 154 1.6 1.6 0.00 0.00 0.00 41 1014.6
20260504000358 25 209 3.2 4.8 0.00 0.00 0.00 42 1014.7
20260503235855 25 149 0.0 0.0 0.00 0.00 0.00 42 1014.6
20260503235353 25 233 11.3 11.3 0.00 0.00 0.00 40 1014.7
20260503234850 26 181 4.8 9.7 0.00 0.00 0.00 41 1014.6
20260503234348 26 255 8.0 11.3 0.00 0.00 0.00 39 1014.5
20260503233845 26 212 6.4 12.9 0.00 0.00 0.00 40 1014.4
20260503233342 26 169 3.2 3.2 0.00 0.00 0.00 41 1014.5
20260503232838 25 163 6.4 11.3 0.00 0.00 0.00 41 1014.7
20260503232335 26 182 6.4 11.3 0.00 0.00 0.00 39 1014.7
20260503231827 26 150 4.8 4.8 0.00 0.00 0.00 39 1014.5
20260503231324 26 197 4.8 6.4 0.00 0.00 0.00 39 1014.5
20260503230820 26 208 6.4 6.4 0.00 0.00 0.00 38 1014.4
20260503230317 26 219 9.7 11.3 0.00 0.00 0.00 39 1014.6
20260503225815 26 130 3.2 3.2 0.00 0.00 0.00 41 1014.9
20260503225311 25 148 3.2 4.8 0.00 0.00 0.00 40 1014.8
20260503224807 26 222 9.7 12.9 0.00 0.00 0.00 39 1014.9
20260503224305 26 216 6.4 6.4 0.00 0.00 0.00 39 1014.9
20260503223802 25 234 9.7 11.3 0.00 0.00 0.00 40 1015.1
20260503223300 25 212 6.4 9.7 0.00 0.00 0.00 39 1015.1
20260503222755 26 175 11.3 12.9 0.00 0.00 0.00 37 1015.1
20260503222254 26 230 4.8 4.8 0.00 0.00 0.00 38 1014.9
20260503221752 26 209 8.0 11.3 0.00 0.00 0.00 36 1015.2
20260503221249 26 224 4.8 9.7 0.00 0.00 0.00 37 1015.3
20260503220745 26 190 4.8 6.4 0.00 0.00 0.00 37 1015.2
20260503220243 26 143 3.2 4.8 0.00 0.00 0.00 37 1015.6
20260503215739 26 147 6.4 6.4 0.00 0.00 0.00 39 1015.5
20260503215236 26 220 6.4 11.3 0.00 0.00 0.00 39 1015.3
20260503214735 26 218 11.3 12.9 0.00 0.00 0.00 38 1015.4
20260503214231 26 235 8.0 11.3 0.00 0.00 0.00 38 1015.6
20260503213729 26 211 11.3 14.5 0.00 0.00 0.00 36 1015.6
20260503213226 26 149 4.8 6.4 0.00 0.00 0.00 38 1015.9
20260503212723 26 93 6.4 11.3 0.00 0.00 0.00 38 1016.3
20260503212221 26 54 0.0 1.6 0.00 0.00 0.00 39 1016.0
20260503211718 26 168 8.0 11.3 0.00 0.00 0.00 39 1016.2
20260503211214 26 204 6.4 9.7 0.00 0.00 0.00 41 1016.3
20260503210709 26 245 9.7 12.9 0.00 0.00 0.00 40 1016.4
20260503210207 26 139 1.6 3.2 0.00 0.00 0.00 40 1016.5
20260503205703 26 225 9.7 11.3 0.00 0.00 0.00 37 1016.6
20260503205158 26 204 4.8 4.8 0.00 0.00 0.00 38 1016.8
20260503204655 26 192 9.7 12.9 0.00 0.00 0.00 40 1016.8
20260503204153 26 150 3.2 11.3 0.00 0.00 0.00 40 1016.9
20260503203650 26 149 3.2 3.2 0.00 0.00 0.00 42 1017.0
20260503203148 26 185 4.8 6.4 0.00 0.00 0.00 42 1017.1
20260503202644 26 220 9.7 11.3 0.00 0.00 0.00 42 1017.0
20260503202143 26 221 4.8 6.4 0.00 0.00 0.00 42 1017.3
20260503201641 26 96 1.6 1.6 0.00 0.00 0.00 42 1017.2
20260503201138 26 61 1.6 1.6 0.00 0.00 0.00 41 1017.2
20260503200633 25 197 3.2 6.4 0.00 0.00 0.00 42 1017.3
20260503200130 26 256 9.7 11.3 0.00 0.00 0.00 41 1017.4
20260503195627 26 102 6.4 6.4 0.00 0.00 0.00 41 1017.6
20260503195123 26 130 6.4 6.4 0.00 0.00 0.00 38 1017.6
20260503194621 26 88 1.6 1.6 0.00 0.00 0.00 42 1017.6
20260503194116 26 203 9.7 11.3 0.00 0.00 0.00 42 1017.8
20260503193613 25 190 0.0 1.6 0.00 0.00 0.00 41 1017.9
20260503193109 25 211 8.0 11.3 0.00 0.00 0.00 41 1017.7
20260503192605 25 148 3.2 4.8 0.00 0.00 0.00 42 1017.9
20260503192101 25 83 4.8 4.8 0.00 0.00 0.00 42 1017.8
20260503191557 25 148 9.7 12.9 0.00 0.00 0.00 42 1018.2
20260503191053 25 136 6.4 6.4 0.00 0.00 0.00 45 1018.1
20260503190550 25 206 6.4 9.7 0.00 0.00 0.00 44 1018.3
20260503190048 25 219 9.7 11.3 0.00 0.00 0.00 43 1018.6
20260503185539 25 267 3.2 6.4 0.00 0.00 0.00 43 1018.6
20260503185039 25 190 6.4 11.3 0.00 0.00 0.00 44 1018.6
20260503184535 25 151 3.2 4.8 0.00 0.00 0.00 43 1018.7
20260503184032 25 220 6.4 11.3 0.00 0.00 0.00 46 1018.7
20260503183528 25 274 9.7 12.9 0.00 0.00 0.00 44 1018.7
20260503183025 25 222 3.2 6.4 0.00 0.00 0.00 43 1019.0
20260503182524 25 230 3.2 4.8 0.00 0.00 0.00 44 1018.9
20260503182021 25 271 9.7 11.3 0.00 0.00 0.00 44 1019.0
20260503181518 25 243 6.4 6.4 0.00 0.00 0.00 43 1019.1
20260503181014 24 100 6.4 6.4 0.00 0.00 0.00 42 1019.3
20260503180512 25 221 9.7 11.3 0.00 0.00 0.00 41 1019.4
20260503180009 25 194 4.8 4.8 0.00 0.00 0.00 45 1019.4
20260503175507 24 148 6.4 6.4 0.00 0.00 0.00 44 1019.6
20260503175003 24 231 8.0 11.3 0.00 0.00 0.00 45 1019.7
20260503174501 25 204 12.9 16.1 0.00 0.00 0.00 44 1019.4
20260503173956 25 207 9.7 12.9 0.00 0.00 0.00 42 1019.9
20260503173452 25 154 3.2 3.2 0.00 0.00 0.00 41 1020.2
20260503172949 25 74 0.0 1.6 0.00 0.00 0.00 46 1019.7
20260503172446 24 215 8.0 12.9 0.00 0.00 0.00 47 1020.2
20260503171943 23 250 9.7 12.9 0.00 0.00 0.00 46 1020.1
20260503171439 23 249 9.7 11.3 0.00 0.00 0.00 49 1020.2
20260503170937 23 221 8.0 11.3 0.00 0.00 0.00 47 1020.3
20260503170433 23 234 16.1 16.1 0.00 0.00 0.00 46 1020.4
20260503150825 22 217 3.2 4.8 0.00 0.00 0.00 55 1020.5
20260503150321 22 168 6.4 9.7 0.00 0.00 0.00 56 1020.7
20260503140246 20 208 3.2 3.2 0.00 0.00 0.00 65 1020.2
20260503131215 13 61 0.0 0.0 0.00 0.00 0.00 99 1020.0
20260503130713 13 61 0.0 0.0 0.00 0.00 0.00 99 1020.1
20260503130210 12 61 0.0 0.0 0.00 0.00 0.00 99 1019.9